TimeEDT,TemperatureF,Dew PointF,Humidity,Sea Level PressureIn,VisibilityMPH,Wind Direction,Wind SpeedMPH,Gust SpeedMPH,PrecipitationIn,Events,Conditions,WindDirDegrees,DateUTC
12:15 AM,69.8,68.0,94,30.15,10.0,Calm,Calm,-,N/A,,Clear,0,2013-04-17 04:15:00
12:35 AM,68.0,68.0,100,30.15,10.0,Calm,Calm,-,N/A,,Clear,0,2013-04-17 04:35:00
12:55 AM,68.0,66.2,94,30.15,10.0,Calm,Calm,-,N/A,,Clear,0,2013-04-17 04:55:00
1:15 AM,68.0,66.2,94,30.14,7.0,North,3.5,-,N/A,,Clear,10,2013-04-17 05:15:00
1:35 AM,68.0,66.2,94,30.14,7.0,Calm,Calm,-,N/A,,Clear,0,2013-04-17 05:35:00
1:55 AM,68.0,68.0,100,30.13,7.0,Calm,Calm,-,N/A,,Scattered Clouds,0,2013-04-17 05:55:00
2:15 AM,66.2,66.2,100,30.13,10.0,Calm,Calm,-,N/A,,Scattered Clouds,0,2013-04-17 06:15:00
2:55 AM,66.2,66.2,100,30.12,7.0,Calm,Calm,-,N/A,,Clear,0,2013-04-17 06:55:00
3:15 AM,66.2,66.2,100,30.11,7.0,Calm,Calm,-,N/A,,Clear,0,2013-04-17 07:15:00
3:35 AM,64.4,64.4,100,30.11,7.0,Calm,Calm,-,N/A,,Clear,0,2013-04-17 07:35:00
3:55 AM,64.4,64.4,100,30.10,5.0,Calm,Calm,-,N/A,,Clear,0,2013-04-17 07:55:00
4:15 AM,64.4,64.4,100,30.10,7.0,Calm,Calm,-,N/A,,Clear,0,2013-04-17 08:15:00
4:35 AM,64.4,64.4,100,30.10,7.0,Calm,Calm,-,N/A,,Clear,0,2013-04-17 08:35:00
4:55 AM,64.4,64.4,100,30.10,7.0,North,3.5,-,N/A,,Clear,360,2013-04-17 08:55:00
5:15 AM,64.4,64.4,100,30.09,7.0,North,3.5,-,N/A,,Clear,360,2013-04-17 09:15:00
5:35 AM,64.4,64.4,100,30.10,7.0,Calm,Calm,-,N/A,,Clear,0,2013-04-17 09:35:00
5:55 AM,64.4,64.4,100,30.11,4.0,Calm,Calm,-,N/A,,Clear,0,2013-04-17 09:55:00
6:15 AM,64.4,64.4,100,30.11,7.0,Calm,Calm,-,N/A,,Clear,0,2013-04-17 10:15:00
6:35 AM,64.4,64.4,100,30.12,5.0,Calm,Calm,-,N/A,,Clear,0,2013-04-17 10:35:00
6:55 AM,64.4,64.4,100,30.12,7.0,Calm,Calm,-,N/A,,Clear,0,2013-04-17 10:55:00
7:15 AM,62.6,62.6,100,30.12,5.0,North,3.5,-,N/A,,Clear,10,2013-04-17 11:15:00
7:35 AM,64.4,64.4,100,30.13,5.0,Calm,Calm,-,N/A,,Clear,0,2013-04-17 11:35:00
7:55 AM,66.2,66.2,100,30.14,7.0,North,3.5,-,N/A,,Clear,350,2013-04-17 11:55:00
8:15 AM,68.0,68.0,100,30.15,10.0,North,3.5,-,N/A,,Clear,10,2013-04-17 12:15:00
8:35 AM,69.8,68.0,94,30.15,10.0,North,6.9,-,N/A,,Scattered Clouds,10,2013-04-17 12:35:00
8:55 AM,71.6,68.0,88,30.15,10.0,NNE,6.9,-,N/A,,Scattered Clouds,20,2013-04-17 12:55:00
9:15 AM,73.4,68.0,83,30.15,10.0,NNE,5.8,-,N/A,,Scattered Clouds,30,2013-04-17 13:15:00
9:35 AM,75.2,68.0,78,30.15,10.0,NNE,8.1,-,N/A,,Clear,20,2013-04-17 13:35:00
9:55 AM,77.0,68.0,74,30.15,10.0,NNE,9.2,-,N/A,,Clear,30,2013-04-17 13:55:00
10:15 AM,78.8,68.0,69,30.14,10.0,NNE,8.1,-,N/A,,Scattered Clouds,30,2013-04-17 14:15:00
10:35 AM,78.8,64.4,61,30.14,10.0,NE,8.1,16.1,N/A,,Scattered Clouds,50,2013-04-17 14:35:00
10:55 AM,78.8,64.4,61,30.13,10.0,NNE,10.4,-,N/A,,Scattered Clouds,30,2013-04-17 14:55:00
11:15 AM,80.6,64.4,58,30.13,10.0,ENE,9.2,-,N/A,,Scattered Clouds,60,2013-04-17 15:15:00
11:35 AM,80.6,62.6,54,30.13,10.0,NE,9.2,-,N/A,,Scattered Clouds,40,2013-04-17 15:35:00
12:15 PM,82.4,62.6,51,30.12,10.0,NE,8.1,-,N/A,,Scattered Clouds,50,2013-04-17 16:15:00
12:55 PM,82.4,62.6,51,30.11,10.0,NE,11.5,16.1,N/A,,Scattered Clouds,40,2013-04-17 16:55:00
1:15 PM,82.4,62.6,51,30.10,10.0,East,10.4,-,N/A,,Scattered Clouds,80,2013-04-17 17:15:00
1:35 PM,82.4,64.4,54,30.09,10.0,East,8.1,-,N/A,,Mostly Cloudy,80,2013-04-17 17:35:00
1:55 PM,86.0,64.4,48,30.09,10.0,NNE,8.1,-,N/A,,Mostly Cloudy,20,2013-04-17 17:55:00
2:15 PM,82.4,64.4,54,30.08,10.0,East,4.6,-,N/A,,Mostly Cloudy,80,2013-04-17 18:15:00
2:35 PM,84.2,64.4,51,30.07,10.0,ENE,9.2,-,N/A,,Scattered Clouds,70,2013-04-17 18:35:00
2:55 PM,82.4,62.6,51,30.07,10.0,NE,5.8,-,N/A,,Scattered Clouds,40,2013-04-17 18:55:00
3:15 PM,84.2,64.4,51,30.06,10.0,NE,9.2,-,N/A,,Scattered Clouds,40,2013-04-17 19:15:00
3:35 PM,82.4,64.4,54,30.06,10.0,NE,12.7,16.1,N/A,,Mostly Cloudy,40,2013-04-17 19:35:00
3:55 PM,82.4,64.4,54,30.05,10.0,NE,8.1,-,N/A,,Mostly Cloudy,50,2013-04-17 19:55:00
4:15 PM,84.2,64.4,51,30.05,10.0,NE,8.1,-,N/A,,Mostly Cloudy,50,2013-04-17 20:15:00
4:55 PM,82.4,64.4,54,30.04,10.0,ENE,6.9,-,N/A,,Scattered Clouds,70,2013-04-17 20:55:00
5:15 PM,84.2,64.4,51,30.04,10.0,ENE,6.9,-,N/A,,Scattered Clouds,70,2013-04-17 21:15:00
5:35 PM,82.4,64.4,54,30.05,10.0,NE,11.5,-,N/A,,Scattered Clouds,50,2013-04-17 21:35:00
5:55 PM,82.4,64.4,54,30.05,10.0,NE,10.4,-,N/A,,Mostly Cloudy,40,2013-04-17 21:55:00
6:15 PM,82.4,64.4,54,30.05,10.0,NE,10.4,-,N/A,,Mostly Cloudy,40,2013-04-17 22:15:00
6:35 PM,80.6,64.4,58,30.05,10.0,NE,8.1,-,N/A,,Mostly Cloudy,40,2013-04-17 22:35:00
6:55 PM,78.8,62.6,57,30.06,10.0,ENE,4.6,-,N/A,,Scattered Clouds,60,2013-04-17 22:55:00
7:15 PM,78.8,64.4,61,30.07,10.0,NE,8.1,-,N/A,,Scattered Clouds,50,2013-04-17 23:15:00
7:55 PM,75.2,64.4,69,30.08,10.0,NE,5.8,-,N/A,,Clear,40,2013-04-17 23:55:00
8:15 PM,73.4,64.4,73,30.08,10.0,NE,4.6,-,N/A,,Clear,50,2013-04-18 00:15:00
8:35 PM,73.4,64.4,73,30.08,10.0,NE,4.6,-,N/A,,Clear,50,2013-04-18 00:35:00
8:55 PM,71.6,66.2,83,30.08,10.0,NE,5.8,-,N/A,,Clear,50,2013-04-18 00:55:00
9:15 PM,71.6,66.2,83,30.09,10.0,ENE,4.6,-,N/A,,Clear,60,2013-04-18 01:15:00
9:35 PM,71.6,66.2,83,30.09,10.0,ENE,4.6,-,N/A,,Clear,70,2013-04-18 01:35:00
9:55 PM,69.8,66.2,88,30.09,10.0,ENE,4.6,-,N/A,,Clear,60,2013-04-18 01:55:00
10:15 PM,69.8,66.2,88,30.09,10.0,ENE,4.6,-,N/A,,Clear,60,2013-04-18 02:15:00
10:35 PM,69.8,66.2,88,30.09,10.0,NE,4.6,-,N/A,,Clear,50,2013-04-18 02:35:00
10:55 PM,69.8,66.2,88,30.09,10.0,ENE,4.6,-,N/A,,Clear,60,2013-04-18 02:55:00
11:15 PM,69.8,66.2,88,30.09,10.0,ENE,4.6,-,N/A,,Clear,60,2013-04-18 03:15:00
11:35 PM,69.8,66.2,88,30.09,10.0,NE,4.6,-,N/A,,Clear,50,2013-04-18 03:35:00
11:55 PM,69.8,66.2,88,30.09,10.0,NE,3.5,-,N/A,,Clear,40,2013-04-18 03:55:00